This is the latest recevied weather packets stored in our database for station/object KB3UMW-13. If no packets are shown the sender has not sent any weather packets the latest 10 day(s).
| Time | Temp. | Humidity | Pressure | Rain* | Wind** | Luminosity | Snow |
|---|---|---|---|---|---|---|---|
| 1777864642 | 0.56° C | 86% | 1015.2 hPa | 0 mm | - | 0 W/m² | - |
| 1777864339 | 1.11° C | 87% | 1015 hPa | 0 mm | - | 0 W/m² | - |
| 1777864035 | 1.11° C | 85% | 1015.1 hPa | 0 mm | - | 0 W/m² | - |
| 1777863733 | 1.11° C | 85% | 1015.1 hPa | 0 mm | - | 0 W/m² | - |
| 1777863429 | 1.67° C | 85% | 1014.7 hPa | 0 mm | - | 0 W/m² | - |
| 1777863125 | 1.11° C | 84% | 1014.8 hPa | 0 mm | - | 0 W/m² | - |
| 1777862823 | 1.67° C | 83% | 1014.6 hPa | 0 mm | - | 0 W/m² | - |
| 1777862519 | 1.67° C | 85% | 1015 hPa | 0 mm | - | 0 W/m² | - |
| 1777862216 | 1.67° C | 83% | 1015 hPa | 0 mm | - | 0 W/m² | - |
| 1777861912 | 1.67° C | 83% | 1015 hPa | 0 mm | - | 0 W/m² | - |
| 1777861608 | 2.22° C | 82% | 1014.6 hPa | 0 mm | - | 0 W/m² | - |
| 1777861304 | 2.22° C | 80% | 1014.8 hPa | 0 mm | - | 0 W/m² | - |
| 1777861002 | 2.22° C | 82% | 1014.7 hPa | 0 mm | - | 0 W/m² | - |
| 1777860698 | 2.78° C | 79% | 1015.2 hPa | 0 mm | - | 0 W/m² | - |
| 1777860396 | 2.78° C | 81% | 1014.8 hPa | 0 mm | - | 0 W/m² | - |
| 1777860092 | 3.33° C | 80% | 1015 hPa | 0 mm | - | 0 W/m² | - |
| 1777859789 | 3.33° C | 80% | 1014.8 hPa | 0 mm | - | 0 W/m² | - |
| 1777859485 | 3.33° C | 78% | 1014.8 hPa | 0 mm | - | 0 W/m² | - |
| 1777859181 | 3.33° C | 79% | 1014.8 hPa | 0 mm | - | 0 W/m² | - |
| 1777858878 | 3.33° C | 77% | 1014.8 hPa | 0 mm | - | 0 W/m² | - |
| 1777858576 | 3.89° C | 77% | 1014.7 hPa | 0 mm | - | 0 W/m² | - |
| 1777858273 | 3.89° C | 77% | 1014.5 hPa | 0 mm | - | 0 W/m² | - |
| 1777857970 | 3.89° C | 77% | 1014.6 hPa | 0 mm | - | 0 W/m² | - |
| 1777857668 | 3.89° C | 76% | 1014.4 hPa | 0 mm | - | 0 W/m² | - |
| 1777857364 | 3.89° C | 75% | 1014.7 hPa | 0 mm | - | 0 W/m² | - |
* Rain latest hour (hover to see other rain measurements)
** Current wind speed in m/s (hover to see current wind gust speed)